STARLINK-2589 (48371 NORAD) Tracking and Keplerian Element Data

This shows tracking and keplerian element data for the satellite.

Feedback or suggestion? Click here.




ElementValue
Catalog48371
NameSTARLINK-2589
Epoch Orbit1459
Epoch Day215.0569713
Epoch Year2021
RAAN331.7731
Inclination53.0532
Eccentricity0.0001162
Argument of Perigee124.2922
Mean Anonmoly235.8177
Mean Motion15.06391275
Decay Rate6.2E-06
L11 48371U 21038U 21215.05697130 .00000620 00000-0 60502-4 0 9994
L22 48371 53.0532 331.7731 0001162 124.2922 235.8177 15.06391275 14591

Live tracking and technical data element details for STARLINK-2589 (NORAD 48371). STARLINK-2589 can be tracked NOW for your location showing map with azimuth and elevation plus other details from your city location.

Track the satellite on the map from your city or location and see movement details for azimuth, elevation, latitude, longitude, range, height, and movement on the map or in text.







IsCatalogInMostPopularTable: catalog: 48371, numindb: 30
Update: records affected: 1



GetName: 48371 STARLINK-2589

Hit Count: updated at: Tue, 03 Aug 2021 20:55:21 GMT